Weather History for Sexton Summit, OR

Change the Weather History Date:

Thursday, May 16, 2013

  Actual Average Record
Temperature  
Mean Temperature 45 °F -  
Max Temperature 52 °F 57 °F 91 °F (2008)
Min Temperature 39 °F 38 °F 30 °F (1998)
Degree Days  
Heating Degree Days 20    
Moisture  
Dew Point 41 °F    
Average Humidity 90    
Maximum Humidity 100    
Minimum Humidity 66    
Precipitation  
Precipitation 0.22 in - - ()
Sea Level Pressure  
Sea Level Pressure 29.98 in    
Wind  
Wind Speed 7 mph (SW)    
Max Wind Speed 13 mph    
Max Gust Speed 17 mph    
Visibility 6 miles    
Events Fog , Rain    
Averages and records for this station are not official NWS values.
T = Trace of Precipitation, MM = Missing Value Source: NWS Daily Summary

Daily Weather History Graph

Daily Weather History Graph

Search for Another Location

Airport:

Trip Planner

Search our weather history database for the weather conditions in past years. The results will help you decide how hot, cold, wet, or windy it might be!

Date:

Astronomy

May. 16, 2013 Rise Set
Actual Time 5:50 AM PDT 8:30 PM PDT
Civil Twilight 5:17 AM PDT 9:02 PM PDT
Nautical Twilight 4:36 AM PDT 9:43 PM PDT
Astronomical Twilight 3:50 AM PDT 10:30 PM PDT
Moon 11:31 AM PDT (5/16) 12:52 AM PDT (5/16)
Length of Visible Light 15h 45m
Length of Day
14h 40m
Waxing Crescent, 36% of the Moon is Illuminated
May 16
Waxing Crescent
May 17
First Quarter
May 24
Full
May 31
Last Quarter
Jun 8
New

Hourly Weather History & Observations

Time (PDT) Temp. Windchill Dew Point Humidity Pressure Visibility Wind Dir Wind Speed Gust Speed Precip Events Conditions
12:56 AM 44.1 °F 39.5 °F 42.1 °F 93% 30.01 in 10.0 mi South 8.1 mph - 0.00 in   Overcast
1:05 AM 44.6 °F 40.2 °F 41.0 °F 87% 30.03 in 10.0 mi South 8.1 mph - N/A   Overcast
1:38 AM 44.6 °F 38.8 °F 41.0 °F 87% 30.02 in 10.0 mi SSE 11.5 mph - N/A   Overcast
1:56 AM 44.1 °F 37.7 °F 41.0 °F 89% 30.00 in 10.0 mi SSE 12.7 mph - N/A   Overcast
2:22 AM 44.6 °F 38.8 °F 39.2 °F 81% 30.00 in 10.0 mi South 11.5 mph - N/A   Mostly Cloudy
2:56 AM 44.1 °F 38.1 °F 39.9 °F 85% 29.97 in 10.0 mi South 11.5 mph - N/A   Overcast
3:03 AM 44.6 °F 38.4 °F 39.2 °F 81% 29.99 in 10.0 mi South 12.7 mph - N/A   Overcast
3:12 AM 44.6 °F 38.4 °F 39.2 °F 81% 29.98 in 10.0 mi SSW 12.7 mph - N/A   Overcast
3:39 AM 42.8 °F 36.2 °F 41.0 °F 93% 29.98 in 3.0 mi South 12.7 mph - 0.01 in Rain Light Rain
3:56 AM 43.0 °F 36.8 °F 41.0 °F 93% 29.96 in 3.0 mi SSW 11.5 mph - 0.02 in Rain Light Rain
4:01 AM 42.8 °F 36.2 °F 41.0 °F 93% 29.98 in 1.5 mi SSW 12.7 mph - 0.00 in Rain Light Rain
4:03 AM 42.8 °F 37.5 °F 41.0 °F 93% 29.98 in 0.8 mi SW 9.2 mph 17.3 mph 0.01 in Rain Rain
4:07 AM 42.8 °F 37.0 °F 42.8 °F 100% 29.98 in 0.2 mi SSW 10.4 mph - 0.02 in Fog , Rain Rain
4:21 AM 42.8 °F 37.5 °F 41.0 °F 93% 29.98 in 0.5 mi South 9.2 mph - 0.05 in Fog , Rain Light Rain
4:25 AM 42.8 °F 37.5 °F 41.0 °F 93% 29.97 in 0.2 mi South 9.2 mph - 0.05 in Fog , Rain Light Rain
4:45 AM 42.8 °F 37.5 °F 41.0 °F 93% 29.97 in 0.2 mi South 9.2 mph - 0.09 in Fog , Rain Light Rain
4:56 AM 42.1 °F 36.1 °F 42.1 °F 100% 29.94 in 0.2 mi South 10.4 mph 17.3 mph 0.10 in Fog , Rain Light Rain
5:56 AM 42.1 °F 37.1 °F 42.1 °F 100% 29.94 in 0.2 mi SSW 8.1 mph - 0.07 in Fog , Rain Light Rain
6:56 AM 43.0 °F 37.7 °F 42.1 °F 97% 29.94 in 0.2 mi SSW 9.2 mph - 0.02 in Fog , Rain Light Rain
7:56 AM 43.0 °F 38.2 °F 42.1 °F 97% 29.95 in 0.2 mi SW 8.1 mph - 0.00 in Fog , Rain Light Rain
8:56 AM 43.0 °F 40.3 °F 42.1 °F 97% 29.96 in 0.2 mi South 4.6 mph - 0.01 in Fog , Rain Light Rain
9:56 AM 45.0 °F 43.5 °F 43.0 °F 93% 29.96 in 0.2 mi Variable 3.5 mph - 0.00 in Fog , Rain Light Rain
10:44 AM 44.6 °F 43.1 °F 42.8 °F 93% 29.98 in 1.5 mi SSW 3.5 mph - 0.00 in   Overcast
10:49 AM 44.6 °F - 42.8 °F 93% 29.98 in 0.5 mi Calm Calm - 0.00 in Fog Fog
10:56 AM 46.0 °F - 45.0 °F 96% 29.96 in 0.2 mi Calm Calm - 0.00 in Fog Fog
11:05 AM 44.6 °F - 42.8 °F 93% 29.98 in 0.8 mi Calm Calm - 0.00 in Rain Light Rain
11:14 AM 44.6 °F - 42.8 °F 93% 29.98 in 0.2 mi Calm Calm - 0.00 in Fog , Rain Light Rain
11:49 AM 44.6 °F 42.2 °F 42.8 °F 93% 29.99 in 1.0 mi Variable 4.6 mph - 0.00 in Rain Light Rain
11:53 AM 44.6 °F - 42.8 °F 93% 29.99 in 2.0 mi Calm Calm - 0.00 in Rain Light Rain
11:56 AM 45.0 °F 43.5 °F 43.0 °F 93% 29.98 in 1.2 mi Variable 3.5 mph - 0.00 in Rain Light Rain
12:05 PM 44.6 °F 40.7 °F 42.8 °F 93% 29.99 in 0.5 mi Variable 6.9 mph - 0.00 in Fog , Rain Light Rain
12:26 PM 44.6 °F 40.7 °F 42.8 °F 93% 29.99 in 1.5 mi Variable 6.9 mph - 0.00 in   Overcast
12:33 PM 44.6 °F 40.7 °F 42.8 °F 93% 29.99 in 2.5 mi Variable 6.9 mph - 0.00 in   Overcast
12:36 PM 44.6 °F 42.2 °F 42.8 °F 93% 29.99 in 6.0 mi Variable 4.6 mph - 0.00 in   Overcast
12:43 PM 46.4 °F 42.9 °F 44.6 °F 93% 29.99 in 2.5 mi SSW 6.9 mph - 0.00 in   Overcast
12:48 PM 44.6 °F 41.4 °F 42.8 °F 93% 29.98 in 1.2 mi Variable 5.8 mph - 0.00 in   Overcast
12:54 PM 46.4 °F 43.5 °F 44.6 °F 93% 29.98 in 3.0 mi Variable 5.8 mph - 0.00 in   Overcast
12:56 PM 46.0 °F 43.9 °F 44.1 °F 93% 29.97 in 5.0 mi South 4.6 mph - 0.00 in   Overcast
1:08 PM 46.4 °F 42.9 °F 44.6 °F 93% 29.98 in 10.0 mi Variable 6.9 mph - N/A   Overcast
1:22 PM 46.4 °F 45.2 °F 44.6 °F 93% 29.98 in 10.0 mi Variable 3.5 mph - N/A   Overcast
1:56 PM 46.9 °F - 42.1 °F 83% 29.96 in 10.0 mi Calm Calm - N/A   Overcast
2:20 PM 50.0 °F - 42.8 °F 76% 29.98 in 10.0 mi Calm Calm - N/A   Overcast
2:31 PM 48.2 °F - 41.0 °F 76% 29.98 in 10.0 mi Variable 3.5 mph - N/A   Mostly Cloudy
2:56 PM 50.0 °F - 41.0 °F 71% 29.95 in 10.0 mi Calm Calm - N/A   Overcast
3:03 PM 50.0 °F - 42.8 °F 76% 29.98 in 10.0 mi Variable 3.5 mph - N/A   Mostly Cloudy
3:56 PM 51.1 °F - 39.9 °F 66% 29.95 in 10.0 mi Variable 6.9 mph - N/A   Overcast
4:56 PM 48.0 °F - 39.9 °F 74% 29.96 in 10.0 mi Variable 3.5 mph - N/A   Overcast
5:08 PM 48.2 °F - 39.2 °F 71% 29.98 in 10.0 mi Calm Calm - N/A   Mostly Cloudy
5:15 PM 48.2 °F - 42.8 °F 82% 29.98 in 10.0 mi Variable 3.5 mph - N/A   Mostly Cloudy
5:56 PM 46.9 °F - 39.9 °F 77% 29.97 in 10.0 mi Variable 3.5 mph - N/A   Overcast
6:41 PM 44.6 °F 43.1 °F 39.2 °F 81% 29.98 in 10.0 mi Variable 3.5 mph - N/A   Overcast
6:52 PM 44.6 °F 43.1 °F 41.0 °F 87% 29.98 in 10.0 mi NNW 3.5 mph - N/A   Overcast
6:56 PM 44.1 °F - 39.9 °F 85% 29.97 in 10.0 mi Calm Calm - N/A   Overcast
7:03 PM 44.6 °F - 41.0 °F 87% 29.98 in 10.0 mi Calm Calm - N/A   Overcast
7:27 PM 42.8 °F 41.1 °F 41.0 °F 93% 29.98 in 7.0 mi Variable 3.5 mph - N/A   Overcast
7:56 PM 42.1 °F 39.2 °F 39.9 °F 92% 29.98 in 2.0 mi NNW 4.6 mph - N/A   Overcast
8:01 PM 42.8 °F 40.1 °F 39.2 °F 87% 29.98 in 1.2 mi NNW 4.6 mph - N/A   Overcast
8:06 PM 41.0 °F 36.4 °F 39.2 °F 93% 29.98 in 2.0 mi NNW 6.9 mph - N/A   Overcast
8:26 PM 41.0 °F 37.1 °F 39.2 °F 93% 29.99 in 7.0 mi NNW 5.8 mph - N/A   Overcast
8:44 PM 41.0 °F 36.4 °F 39.2 °F 93% 29.99 in 10.0 mi NW 6.9 mph - N/A   Overcast
8:56 PM 39.9 °F 35.1 °F 39.0 °F 97% 29.99 in 10.0 mi NW 6.9 mph - N/A   Overcast
9:04 PM 39.2 °F 35.0 °F 39.2 °F 100% 29.99 in 10.0 mi NNW 5.8 mph - N/A   Overcast
9:35 PM 39.2 °F 34.2 °F 37.4 °F 93% 29.99 in 10.0 mi NW 6.9 mph - N/A   Overcast
9:56 PM 39.0 °F 34.0 °F 37.9 °F 96% 30.00 in 10.0 mi NW 6.9 mph - N/A   Overcast
10:26 PM 39.2 °F 35.9 °F 39.2 °F 100% 30.00 in 10.0 mi NNW 4.6 mph - N/A   Overcast
10:37 PM 39.2 °F 35.9 °F 39.2 °F 100% 30.00 in 10.0 mi NNW 4.6 mph - N/A   Overcast
10:49 PM 39.2 °F 35.0 °F 39.2 °F 100% 30.00 in 10.0 mi NNW 5.8 mph - N/A   Overcast
10:56 PM 39.9 °F 35.8 °F 39.0 °F 97% 30.00 in 10.0 mi NNW 5.8 mph - N/A   Overcast
11:56 PM 39.0 °F 34.8 °F 37.9 °F 96% 30.01 in 10.0 mi NNW 5.8 mph - N/A   Overcast